DJ6OI-23 Weather Reports


Display with metric or nautical units.
time (UTC)temp
F
wind
direction
speed
MPH
gust
MPH
rain 1hr
in
rain 24hr
in
rain mn
in
humidity
%
barometer
mb
20260902125414 76 0.0 0.0 0.00 0.00 0.00 58 999.3
20260902123839 75 0.0 0.0 0.00 0.00 0.00 59 999.5
20260902122305 80 0.0 0.0 0.00 0.00 0.00 57 999.4
20260902120729 80 0.0 0.0 0.00 0.00 0.00 58 999.8
20260902115154 82 0.0 0.0 0.00 0.00 0.00 59 999.7
20260902113619 81 0.0 0.0 0.00 0.00 0.00 60 999.8
20260902112045 81 0.0 0.0 0.00 0.00 0.00 62 999.7
20260902110510 79 0.0 0.0 0.00 0.00 0.00 65 999.8
20260902104935 80 0.0 0.0 0.00 0.00 0.00 63 100.0
20260902103400 79 0.0 0.0 0.00 0.00 0.00 64 1000.2
20260902101825 76 0.0 0.0 0.00 0.00 0.00 68 1000.3
20260902100250 69 0.0 0.0 0.00 0.00 0.00 80 1000.4
20260902094715 69 0.0 0.0 0.00 0.00 0.00 81 1000.3
20260902093140 76 0.0 0.0 0.00 0.00 0.00 72 1000.2
20260902091605 78 0.0 0.0 0.00 0.00 0.00 69 1000.4
20260902090030 76 0.0 0.0 0.00 0.00 0.00 72 1000.3
20260902084456 74 0.0 0.0 0.00 0.00 0.00 75 1000.3
20260902082920 73 0.0 0.0 0.00 0.00 0.00 78 1000.2
20260902081346 71 0.0 0.0 0.00 0.00 0.00 82 1000.2
20260902075811 68 0.0 0.0 0.00 0.00 0.00 88 1000.5
20260902074236 66 0.0 0.0 0.00 0.00 0.00 92 1000.5
20260902072701 65 0.0 0.0 0.00 0.00 0.00 92 1000.5
20260902071126 63 0.0 0.0 0.00 0.00 0.00 97 1000.5
20260902065551 61 0.0 0.0 0.00 0.00 0.00 99 1000.5
20260902064016 59 0.0 0.0 0.00 0.00 0.00 10 1000.4
20260902062441 58 0.0 0.0 0.00 0.00 0.00 10 1000.4
20260902060906 56 0.0 0.0 0.00 0.00 0.00 10 1000.4
20260902055331 55 0.0 0.0 0.00 0.00 0.00 10 1000.4
20260902053756 55 0.0 0.0 0.00 0.00 0.00 10 1000.4
20260902052222 54 0.0 0.0 0.00 0.00 0.00 10 1000.5
20260902050647 53 0.0 0.0 0.00 0.00 0.00 10 1000.4
20260902045112 54 0.0 0.0 0.00 0.00 0.00 10 1000.4
20260902043537 54 0.0 0.0 0.00 0.00 0.00 10 1000.4
20260902041720 0 0.0 0.0 0.00 0.00 0.00 10 1137.1
20260902040145 53 0.0 0.0 0.00 0.00 0.00 10 1000.6
20260902034610 53 0.0 0.0 0.00 0.00 0.00 10 1000.7
20260902033035 53 0.0 0.0 0.00 0.00 0.00 10 1000.7
20260902031501 52 0.0 0.0 0.00 0.00 0.00 10 1000.5
20260902025926 52 0.0 0.0 0.00 0.00 0.00 10 1000.7
20260902024351 52 0.0 0.0 0.00 0.00 0.00 10 1000.7
20260902022816 52 0.0 0.0 0.00 0.00 0.00 10 1000.8
20260902021241 52 0.0 0.0 0.00 0.00 0.00 10 1000.8
20260902015706 52 0.0 0.0 0.00 0.00 0.00 10 1000.8
20260902012556 52 0.0 0.0 0.00 0.00 0.00 10 1000.6
20260902011021 52 0.0 0.0 0.00 0.00 0.00 10 1000.7
20260902005446 52 0.0 0.0 0.00 0.00 0.00 10 1000.7
20260902003911 52 0.0 0.0 0.00 0.00 0.00 10 1000.7
20260902002337 51 0.0 0.0 0.00 0.00 0.00 10 1000.8
20260902000802 51 0.0 0.0 0.00 0.00 0.00 10 1000.9
20260901235227 51 0.0 0.0 0.00 0.00 0.00 10 1001.0
20260901233652 51 0.0 0.0 0.00 0.00 0.00 10 1000.9
20260901232117 51 0.0 0.0 0.00 0.00 0.00 10 1001.0
20260901230542 52 0.0 0.0 0.00 0.00 0.00 10 1000.8
20260901225007 52 0.0 0.0 0.00 0.00 0.00 10 1000.8
20260901223432 52 0.0 0.0 0.00 0.00 0.00 10 1000.7
20260901221857 53 0.0 0.0 0.00 0.00 0.00 10 1000.7
20260901220322 53 0.0 0.0 0.00 0.00 0.00 10 1000.7
20260901214747 54 0.0 0.0 0.00 0.00 0.00 10 1000.7
20260901213213 54 0.0 0.0 0.00 0.00 0.00 10 1000.8
20260901211638 54 0.0 0.0 0.00 0.00 0.00 10 1000.8
20260901204528 55 0.0 0.0 0.00 0.00 0.00 10 1000.8
20260901202953 56 0.0 0.0 0.00 0.00 0.00 10 1000.8
20260901201418 56 0.0 0.0 0.00 0.00 0.00 10 1000.7
20260901195843 57 0.0 0.0 0.00 0.00 0.00 10 1000.7
20260901194308 57 0.0 0.0 0.00 0.00 0.00 10 1000.6
20260901192733 58 0.0 0.0 0.00 0.00 0.00 99 1000.6
20260901191158 58 0.0 0.0 0.00 0.00 0.00 97 1000.6
20260901185623 59 0.0 0.0 0.00 0.00 0.00 96 1000.5
20260901184048 60 0.0 0.0 0.00 0.00 0.00 94 1000.2
20260901182514 61 0.0 0.0 0.00 0.00 0.00 93 1000.1
20260901180939 63 0.0 0.0 0.00 0.00 0.00 90 999.8
20260901175404 65 0.0 0.0 0.00 0.00 0.00 88 999.8
20260901173829 68 0.0 0.0 0.00 0.00 0.00 85 999.7
20260901172254 68 0.0 0.0 0.00 0.00 0.00 86 999.5
20260901170719 67 0.0 0.0 0.00 0.00 0.00 86 999.5
20260901165144 69 0.0 0.0 0.00 0.00 0.00 83 999.5
20260901163609 69 0.0 0.0 0.00 0.00 0.00 84 999.5
20260901162035 67 0.0 0.0 0.00 0.00 0.00 87 999.5
20260901160459 68 0.0 0.0 0.00 0.00 0.00 85 999.5
20260901154924 68 0.0 0.0 0.00 0.00 0.00 84 999.3
20260901153350 69 0.0 0.0 0.00 0.00 0.00 82 999.4
20260901151815 67 0.0 0.0 0.00 0.00 0.00 83 999.5
20260901150240 65 0.0 0.0 0.00 0.00 0.00 86 999.4
20260901144705 65 0.0 0.0 0.00 0.00 0.00 82 999.2
20260901143130 68 0.0 0.0 0.00 0.00 0.00 77 999.1
20260901141555 71 0.0 0.0 0.00 0.00 0.00 72 999.0
20260901140020 70 0.0 0.0 0.00 0.00 0.00 68 999.0
20260901134445 82 0.0 0.0 0.00 0.00 0.00 56 998.7
20260901132910 84 0.0 0.0 0.00 0.00 0.00 56 998.9
20260901131335 80 0.0 0.0 0.00 0.00 0.00 61 998.9